Time,TemperatureF,DewpointF,PressureIn,WindDirection,WindDirectionDegrees,WindSpeedMPH,WindSpeedGustMPH,Humidity,HourlyPrecipIn,Conditions,Clouds,dailyrainin,SolarRadiationWatts/m^2,SoftwareType,DateUTC
2013-11-28 00:06:00,22.7,16.0,30.22,WSW,246,5.0,7.0,74,0.00,,,0.00,0,weatherlink.com 1.10,2013-11-28 05:06:00,
2013-11-28 00:21:00,22.6,15.0,30.22,West,272,3.0,8.0,73,0.00,,,0.00,0,weatherlink.com 1.10,2013-11-28 05:21:00,
2013-11-28 00:36:00,22.6,15.0,30.23,West,268,3.0,6.0,74,0.00,,,0.00,0,weatherlink.com 1.10,2013-11-28 05:36:00,
2013-11-28 00:51:00,22.3,15.0,30.23,WSW,254,1.0,7.0,73,0.00,,,0.00,0,weatherlink.com 1.10,2013-11-28 05:51:00,
2013-11-28 01:06:00,22.3,15.0,30.22,WSW,249,3.0,6.0,73,0.00,,,0.00,0,weatherlink.com 1.10,2013-11-28 06:06:00,
2013-11-28 01:21:00,22.2,15.0,30.23,WSW,249,2.0,6.0,74,0.00,,,0.00,0,weatherlink.com 1.10,2013-11-28 06:21:00,
2013-11-28 01:36:00,22.1,15.0,30.22,WSW,249,3.0,7.0,73,0.00,,,0.00,0,weatherlink.com 1.10,2013-11-28 06:36:00,
2013-11-28 01:51:00,21.9,15.0,30.23,WSW,249,4.0,6.0,74,0.00,,,0.00,0,weatherlink.com 1.10,2013-11-28 06:51:00,
2013-11-28 02:06:00,21.8,15.0,30.23,WSW,249,3.0,6.0,74,0.00,,,0.00,0,weatherlink.com 1.10,2013-11-28 07:06:00,
2013-11-28 02:21:00,21.7,15.0,30.23,WSW,251,0.0,5.0,74,0.00,,,0.00,0,weatherlink.com 1.10,2013-11-28 07:21:00,
2013-11-28 02:36:00,21.7,15.0,30.24,WSW,258,1.0,5.0,74,0.00,,,0.00,0,weatherlink.com 1.10,2013-11-28 07:36:00,
2013-11-28 02:51:00,21.6,15.0,30.24,West,259,2.0,5.0,74,0.00,,,0.00,0,weatherlink.com 1.10,2013-11-28 07:51:00,
2013-11-28 03:06:00,21.6,15.0,30.24,WSW,258,4.0,4.0,74,0.00,,,0.00,0,weatherlink.com 1.10,2013-11-28 08:06:00,
2013-11-28 03:21:00,21.6,15.0,30.24,WSW,258,2.0,4.0,74,0.00,,,0.00,0,weatherlink.com 1.10,2013-11-28 08:21:00,
2013-11-28 03:36:00,21.6,15.0,30.24,WSW,258,3.0,4.0,74,0.00,,,0.00,0,weatherlink.com 1.10,2013-11-28 08:36:00,
2013-11-28 03:51:00,21.3,14.0,30.24,WSW,258,5.0,5.0,73,0.00,,,0.00,0,weatherlink.com 1.10,2013-11-28 08:51:00,
2013-11-28 04:06:00,21.4,15.0,30.24,WSW,258,4.0,5.0,75,0.00,,,0.00,0,weatherlink.com 1.10,2013-11-28 09:06:00,
2013-11-28 04:21:00,21.3,15.0,30.23,WSW,258,2.0,5.0,75,0.00,,,0.00,0,weatherlink.com 1.10,2013-11-28 09:21:00,
2013-11-28 04:36:00,21.1,15.0,30.24,WSW,258,4.0,6.0,77,0.00,,,0.00,0,weatherlink.com 1.10,2013-11-28 09:36:00,
2013-11-28 04:51:00,21.2,15.0,30.24,WSW,258,4.0,4.0,77,0.00,,,0.00,0,weatherlink.com 1.10,2013-11-28 09:51:00,
2013-11-28 05:06:00,21.4,15.0,30.24,WSW,257,3.0,5.0,76,0.00,,,0.00,0,weatherlink.com 1.10,2013-11-28 10:06:00,
2013-11-28 05:21:00,21.6,15.0,30.24,WSW,257,5.0,6.0,76,0.00,,,0.00,0,weatherlink.com 1.10,2013-11-28 10:21:00,
2013-11-28 05:36:00,21.7,15.0,30.24,SW,225,2.0,8.0,76,0.00,,,0.00,0,weatherlink.com 1.10,2013-11-28 10:36:00,
2013-11-28 05:51:00,21.9,15.0,30.24,WSW,239,9.0,9.0,76,0.00,,,0.00,0,weatherlink.com 1.10,2013-11-28 10:51:00,
2013-11-28 06:06:00,22.2,15.0,30.24,WSW,237,4.0,9.0,75,0.00,,,0.00,0,weatherlink.com 1.10,2013-11-28 11:06:00,
2013-11-28 06:22:00,22.4,15.0,30.24,SW,214,0.0,10.0,74,0.00,,,0.00,0,weatherlink.com 1.10,2013-11-28 11:22:00,
2013-11-28 06:37:00,22.5,15.0,30.25,SW,224,0.0,6.0,74,0.00,,,0.00,0,weatherlink.com 1.10,2013-11-28 11:37:00,
2013-11-28 06:52:00,22.4,16.0,30.25,SSW,207,3.0,5.0,76,0.00,,,0.00,0,weatherlink.com 1.10,2013-11-28 11:52:00,
2013-11-28 07:07:00,22.4,16.0,30.25,South,189,3.0,7.0,75,0.00,,,0.00,0,weatherlink.com 1.10,2013-11-28 12:07:00,
2013-11-28 07:22:00,22.6,15.0,30.26,South,187,3.0,7.0,74,0.00,,,0.00,0,weatherlink.com 1.10,2013-11-28 12:22:00,
2013-11-28 07:37:00,22.8,15.0,30.25,South,181,4.0,8.0,73,0.00,,,0.00,0,weatherlink.com 1.10,2013-11-28 12:37:00,
2013-11-28 07:52:00,22.8,16.0,30.25,South,187,1.0,7.0,74,0.00,,,0.00,0,weatherlink.com 1.10,2013-11-28 12:52:00,
2013-11-28 08:07:00,22.9,15.0,30.25,South,169,2.0,7.0,73,0.00,,,0.00,9,weatherlink.com 1.10,2013-11-28 13:07:00,
2013-11-28 08:22:00,23.0,16.0,30.26,South,184,0.0,8.0,73,0.00,,,0.00,16,weatherlink.com 1.10,2013-11-28 13:22:00,
2013-11-28 08:37:00,23.0,16.0,30.26,SSW,196,1.0,7.0,73,0.00,,,0.00,25,weatherlink.com 1.10,2013-11-28 13:37:00,
2013-11-28 08:52:00,23.1,15.0,30.26,South,181,2.0,12.0,72,0.00,,,0.00,32,weatherlink.com 1.10,2013-11-28 13:52:00,
2013-11-28 09:07:00,23.3,16.0,30.26,SSE,164,5.0,9.0,72,0.00,,,0.00,42,weatherlink.com 1.10,2013-11-28 14:07:00,
2013-11-28 09:22:00,23.4,15.0,30.26,SSW,201,6.0,10.0,71,0.00,,,0.00,49,weatherlink.com 1.10,2013-11-28 14:22:00,
2013-11-28 09:37:00,23.5,15.0,30.25,SW,216,5.0,11.0,71,0.00,,,0.00,60,weatherlink.com 1.10,2013-11-28 14:37:00,
2013-11-28 09:52:00,23.6,15.0,30.25,South,175,5.0,13.0,71,0.00,,,0.00,65,weatherlink.com 1.10,2013-11-28 14:52:00,
2013-11-28 10:07:00,23.8,15.0,30.25,South,176,1.0,12.0,70,0.00,,,0.00,72,weatherlink.com 1.10,2013-11-28 15:07:00,
2013-11-28 10:22:00,24.0,15.0,30.25,SSE,168,2.0,13.0,68,0.00,,,0.00,72,weatherlink.com 1.10,2013-11-28 15:22:00,
2013-11-28 10:37:00,24.1,15.0,30.25,SSW,201,3.0,14.0,67,0.00,,,0.00,84,weatherlink.com 1.10,2013-11-28 15:37:00,
2013-11-28 10:52:00,24.4,15.0,30.24,South,183,5.0,14.0,68,0.00,,,0.00,113,weatherlink.com 1.10,2013-11-28 15:52:00,
2013-11-28 11:07:00,24.6,15.0,30.24,SW,218,3.0,13.0,66,0.00,,,0.00,144,weatherlink.com 1.10,2013-11-28 16:07:00,
2013-11-28 11:22:00,25.0,15.0,30.23,SSW,193,2.0,8.0,66,0.00,,,0.00,156,weatherlink.com 1.10,2013-11-28 16:22:00,
2013-11-28 11:37:00,25.2,15.0,30.23,SSW,206,4.0,10.0,66,0.00,,,0.00,165,weatherlink.com 1.10,2013-11-28 16:37:00,
2013-11-28 11:52:00,25.5,15.0,30.22,SSW,199,6.0,10.0,65,0.00,,,0.00,183,weatherlink.com 1.10,2013-11-28 16:52:00,
2013-11-28 12:07:00,25.5,15.0,30.22,South,189,2.0,17.0,65,0.00,,,0.00,181,weatherlink.com 1.10,2013-11-28 17:07:00,
2013-11-28 12:22:00,26.0,15.0,30.21,SSW,195,6.0,14.0,64,0.00,,,0.00,255,weatherlink.com 1.10,2013-11-28 17:22:00,
2013-11-28 12:37:00,26.6,15.0,30.20,SW,226,5.0,14.0,63,0.00,,,0.00,285,weatherlink.com 1.10,2013-11-28 17:37:00,
2013-11-28 12:52:00,27.2,16.0,30.20,WSW,237,0.0,14.0,63,0.00,,,0.00,330,weatherlink.com 1.10,2013-11-28 17:52:00,
2013-11-28 13:07:00,27.9,17.0,30.19,SW,222,3.0,13.0,63,0.00,,,0.00,309,weatherlink.com 1.10,2013-11-28 18:07:00,
2013-11-28 13:23:00,28.5,16.0,30.19,SW,226,0.0,14.0,61,0.00,,,0.00,494,weatherlink.com 1.10,2013-11-28 18:23:00,
2013-11-28 13:38:00,29.4,17.0,30.19,South,185,7.0,11.0,60,0.00,,,0.00,490,weatherlink.com 1.10,2013-11-28 18:38:00,
2013-11-28 13:53:00,30.0,17.0,30.18,WSW,244,4.0,14.0,59,0.00,,,0.00,462,weatherlink.com 1.10,2013-11-28 18:53:00,
2013-11-28 14:08:00,31.0,18.0,30.18,SSW,194,4.0,8.0,59,0.00,,,0.00,357,weatherlink.com 1.10,2013-11-28 19:08:00,
2013-11-28 14:23:00,31.5,17.0,30.18,SW,233,3.0,10.0,56,0.01,,,0.01,417,weatherlink.com 1.10,2013-11-28 19:23:00,
2013-11-28 14:38:00,32.4,17.0,30.17,SW,227,8.0,13.0,54,0.01,,,0.01,385,weatherlink.com 1.10,2013-11-28 19:38:00,
2013-11-28 14:53:00,32.7,18.0,30.17,SW,226,6.0,13.0,54,0.01,,,0.01,355,weatherlink.com 1.10,2013-11-28 19:53:00,
2013-11-28 15:08:00,33.3,18.0,30.18,WSW,253,6.0,13.0,54,0.00,,,0.01,330,weatherlink.com 1.10,2013-11-28 20:08:00,
2013-11-28 15:23:00,33.4,18.0,30.19,WSW,237,10.0,12.0,54,0.00,,,0.01,290,weatherlink.com 1.10,2013-11-28 20:23:00,
2013-11-28 15:38:00,33.7,18.0,30.20,WSW,252,10.0,15.0,54,0.00,,,0.01,278,weatherlink.com 1.10,2013-11-28 20:38:00,
2013-11-28 15:53:00,34.1,19.0,30.20,WSW,253,1.0,11.0,55,0.00,,,0.01,276,weatherlink.com 1.10,2013-11-28 20:53:00,
2013-11-28 16:08:00,34.1,19.0,30.20,WSW,256,5.0,14.0,55,0.01,,,0.02,213,weatherlink.com 1.10,2013-11-28 21:08:00,
2013-11-28 16:23:00,34.6,20.0,30.20,SW,217,6.0,13.0,55,0.01,,,0.02,158,weatherlink.com 1.10,2013-11-28 21:23:00,
2013-11-28 16:38:00,34.6,20.0,30.21,WNW,285,4.0,6.0,55,0.01,,,0.02,95,weatherlink.com 1.10,2013-11-28 21:38:00,
2013-11-28 16:53:00,33.7,20.0,30.22,WNW,286,5.0,9.0,57,0.01,,,0.02,46,weatherlink.com 1.10,2013-11-28 21:53:00,
2013-11-28 17:08:00,32.9,19.0,30.23,WNW,286,4.0,6.0,58,0.00,,,0.02,16,weatherlink.com 1.10,2013-11-28 22:08:00,
2013-11-28 17:23:00,32.0,19.0,30.24,WNW,286,1.0,3.0,60,0.00,,,0.02,0,weatherlink.com 1.10,2013-11-28 22:23:00,
2013-11-28 17:38:00,31.6,20.0,30.25,WNW,286,0.0,2.0,62,0.00,,,0.02,0,weatherlink.com 1.10,2013-11-28 22:38:00,
2013-11-28 17:53:00,31.2,20.0,30.26,WNW,286,0.0,1.0,63,0.00,,,0.02,0,weatherlink.com 1.10,2013-11-28 22:53:00,
2013-11-28 18:08:00,31.0,20.0,30.27,WNW,286,0.0,2.0,64,0.00,,,0.02,0,weatherlink.com 1.10,2013-11-28 23:08:00,
2013-11-28 18:23:00,30.8,20.0,30.28,WNW,286,0.0,3.0,64,0.00,,,0.02,0,weatherlink.com 1.10,2013-11-28 23:23:00,
2013-11-28 18:38:00,30.7,20.0,30.29,WNW,286,0.0,3.0,65,0.00,,,0.02,0,weatherlink.com 1.10,2013-11-28 23:38:00,
2013-11-28 18:53:00,30.4,20.0,30.30,WNW,286,2.0,4.0,65,0.00,,,0.02,0,weatherlink.com 1.10,2013-11-28 23:53:00,
2013-11-28 19:08:00,30.2,20.0,30.31,WNW,286,1.0,3.0,66,0.00,,,0.02,0,weatherlink.com 1.10,2013-11-29 00:08:00,
2013-11-28 19:23:00,29.9,20.0,30.32,WNW,286,0.0,2.0,67,0.00,,,0.02,0,weatherlink.com 1.10,2013-11-29 00:23:00,
2013-11-28 19:38:00,29.4,20.0,30.32,WNW,286,0.0,1.0,69,0.00,,,0.02,0,weatherlink.com 1.10,2013-11-29 00:38:00,
2013-11-28 19:53:00,28.7,20.0,30.33,WNW,286,0.0,1.0,70,0.00,,,0.02,0,weatherlink.com 1.10,2013-11-29 00:53:00,
2013-11-28 20:09:00,28.1,20.0,30.33,WNW,286,0.0,0.0,72,0.00,,,0.02,0,weatherlink.com 1.10,2013-11-29 01:09:00,
2013-11-28 20:24:00,27.5,20.0,30.34,WNW,286,0.0,1.0,73,0.00,,,0.02,0,weatherlink.com 1.10,2013-11-29 01:24:00,
2013-11-28 20:39:00,26.5,19.0,30.34,WNW,286,0.0,0.0,74,0.00,,,0.02,0,weatherlink.com 1.10,2013-11-29 01:39:00,
2013-11-28 20:54:00,26.0,19.0,30.35,WNW,286,0.0,1.0,76,0.00,,,0.02,0,weatherlink.com 1.10,2013-11-29 01:54:00,
2013-11-28 21:09:00,25.6,19.0,30.36,WNW,286,0.0,1.0,77,0.00,,,0.02,0,weatherlink.com 1.10,2013-11-29 02:09:00,
2013-11-28 21:24:00,25.1,19.0,30.36,WNW,286,0.0,0.0,77,0.00,,,0.02,0,weatherlink.com 1.10,2013-11-29 02:24:00,
2013-11-28 21:39:00,24.5,19.0,30.36,WNW,286,0.0,0.0,79,0.00,,,0.02,0,weatherlink.com 1.10,2013-11-29 02:39:00,
2013-11-28 21:54:00,24.3,19.0,30.37,WNW,286,0.0,0.0,80,0.00,,,0.02,0,weatherlink.com 1.10,2013-11-29 02:54:00,
2013-11-28 22:09:00,24.4,19.0,30.38,WNW,286,0.0,2.0,81,0.00,,,0.02,0,weatherlink.com 1.10,2013-11-29 03:09:00,
2013-11-28 22:24:00,24.3,20.0,30.38,WNW,286,0.0,2.0,82,0.00,,,0.02,0,weatherlink.com 1.10,2013-11-29 03:24:00,
2013-11-28 22:39:00,24.8,20.0,30.39,WNW,286,2.0,4.0,82,0.00,,,0.02,0,weatherlink.com 1.10,2013-11-29 03:39:00,
2013-11-28 22:54:00,25.8,21.0,30.39,WNW,286,2.0,4.0,81,0.00,,,0.02,0,weatherlink.com 1.10,2013-11-29 03:54:00,
2013-11-28 23:09:00,26.6,21.0,30.40,WNW,286,1.0,4.0,78,0.00,,,0.02,0,weatherlink.com 1.10,2013-11-29 04:09:00,
2013-11-28 23:24:00,27.0,21.0,30.40,WNW,286,1.0,3.0,77,0.00,,,0.02,0,weatherlink.com 1.10,2013-11-29 04:24:00,
2013-11-28 23:39:00,27.2,21.0,30.41,WNW,286,0.0,3.0,77,0.00,,,0.02,0,weatherlink.com 1.10,2013-11-29 04:39:00,
2013-11-28 23:54:00,27.1,21.0,30.41,WNW,286,0.0,2.0,78,0.00,,,0.02,0,weatherlink.com 1.10,2013-11-29 04:54:00,